This is the latest recevied weather packets stored in our database for station/object KC9DRE. If no packets are shown the sender has not sent any weather packets the latest 10 day(s).
| Time | Temp. | Humidity | Pressure | Rain* | Wind** | Luminosity | Snow |
|---|---|---|---|---|---|---|---|
| 1787788788 | 25.56° C | 74% | 1014.1 hPa | 0 mm | - | 16 W/m² | - |
| 1787788482 | 26.11° C | 73% | 1014.1 hPa | 0 mm | - | 21 W/m² | - |
| 1787788177 | 26.11° C | 73% | 1014 hPa | 0 mm | - | 25 W/m² | - |
| 1787787872 | 26.67° C | 73% | 1013.8 hPa | 0 mm | - | 29 W/m² | - |
| 1787787572 | 26.67° C | 70% | 1014.1 hPa | 0 mm | - | 34 W/m² | - |
| 1787787266 | 27.22° C | 69% | 1014.1 hPa | 0 mm | - | 40 W/m² | - |
| 1787786965 | 27.22° C | 69% | 1014.1 hPa | 0 mm | - | 44 W/m² | - |
| 1787786661 | 27.22° C | 68% | 1014.1 hPa | 0 mm | - | 48 W/m² | - |
| 1787786360 | 27.22° C | 66% | 1013.9 hPa | 0 mm | - | 52 W/m² | - |
| 1787786057 | 27.78° C | 68% | 1013.8 hPa | 0 mm | - | 54 W/m² | - |
| 1787785752 | 27.78° C | 69% | 1013.9 hPa | 0 mm | - | 57 W/m² | - |
| 1787785447 | 27.78° C | 68% | 1013.8 hPa | 0 mm | - | 60 W/m² | - |
| 1787785146 | 28.33° C | 66% | 1014 hPa | 0 mm | - | 64 W/m² | - |
| 1787784841 | 28.89° C | 64% | 1014.1 hPa | 0 mm | - | 73 W/m² | - |
| 1787784541 | 29.44° C | 61% | 1014.1 hPa | 0 mm | - | 81 W/m² | - |
| 1787784235 | 30° C | 59% | 1014.2 hPa | 0 mm | - | 84 W/m² | - |
| 1787783930 | 30.56° C | 57% | 1014.1 hPa | 0 mm | - | 130 W/m² | - |
| 1787783626 | 31.11° C | 60% | 1014.2 hPa | 0 mm | - | 128 W/m² | - |
| 1787783325 | 31.67° C | 55% | 1014.1 hPa | 0 mm | - | 125 W/m² | - |
| 1787783021 | 31.67° C | 55% | 1014.2 hPa | 0 mm | - | 175 W/m² | - |
| 1787782720 | 31.67° C | 53% | 1014.3 hPa | 0 mm | - | 200 W/m² | - |
| 1787782416 | 31.67° C | 54% | 1014.1 hPa | 0 mm | - | 219 W/m² | - |
| 1787782111 | 31.67° C | 55% | 1014.2 hPa | 0 mm | - | 239 W/m² | - |
| 1787781807 | 31.67° C | 52% | 1014.2 hPa | 0 mm | - | 255 W/m² | - |
| 1787781504 | 32.22° C | 53% | 1014.2 hPa | 0 mm | - | 273 W/m² | - |
* Rain latest hour (hover to see other rain measurements)
** Current wind speed in m/s (hover to see current wind gust speed)